Location: Parchey Bridge, Chedzoy
(51.1354°N, 2.9289°W)
Time: 02:09:30
(UTC+00:00)

ISS - Pass Details

Date: 24 February 2019
Orbit: 406 x 411 km, 51.6° (Epoch: 23 March)

Event Time Altitude Azimuth Distance (km) Brightness Sun altitude
Rises 06:11:20 0° 207° (SSW) 2,316 -0.2 -9.6°
Reaches altitude 10° 06:13:50 10° 188° (S) 1,461 -1.0 -9.2°
Maximum altitude 06:16:09 18° 142° (SE) 1,074 -1.1 -8.8°
Drops below altitude 10° 06:18:29 10° 97° (E) 1,469 0.7 -8.4°
Sets 06:20:59 0° 78° (ENE) 2,334 1.7 -8.0°
